Regional Weather Roundup
Issued by NWS Charleston, WV

Home | Current Version | Previous Version | Text Only | Print | Product List | Glossary Off
Versions: 1 2 3 4 5 6 7 8 9 10 11 12 13 14 15 16 17 18 19 20 21 22 23 24 25 26 27 28 29 30 31 32 33 34 35 36 37 38 39 40 41 42 43 44 45 46 47 48 49 50

000
ASUS41 KRLX 010410
RWRRLX
West Virginia Regional Weather Roundup
National Weather Service Charleston WV
1100 PM EST SAT FEB 28 2015

Note: "fair" indicates few or no clouds below 12,000 feet with no
significant weather and/or obstructions to visibility.

WVZ003-010500-
Northern Panhandle of West Virginia

CITY           SKY/WX    TMP DP  RH WIND       PRES   REMARKS
WHEELING       MOCLDY    23   3  42 E7        30.51F
$$

WVZ009-010500-
Northwest West Virginia

CITY           SKY/WX    TMP DP  RH WIND       PRES   REMARKS
PARKERSBURG    CLOUDY    30  10  43 NE3       30.53F
$$

WVZ006-010500-
Western West Virginia

CITY           SKY/WX    TMP DP  RH WIND       PRES   REMARKS
HUNTINGTON     CLOUDY    31  15  52 N3        30.48F
$$

WVZ015-010500-
West Central West Virginia

CITY           SKY/WX    TMP DP  RH WIND       PRES   REMARKS
CHARLESTON     MOCLDY    28  20  71 CALM      30.47F
$$

WVZ022-031-010500-
North Central West Virginia

CITY           SKY/WX    TMP DP  RH WIND       PRES   REMARKS
CLARKSBURG     CLOUDY    27   9  46 CALM      30.49F
MORGANTOWN     MOCLDY    28   7  41 E3        30.50F
$$

WVZ025-035-042-045-010500-
Southern West Virginia

CITY           SKY/WX    TMP DP  RH WIND       PRES   REMARKS
BECKLEY        PTCLDY    30  15  53 SE9G20    30.47F
LOGAN            N/A     37  21  52 CALM      30.42F
BLUEFIELD      MOCLDY    31  15  52 SE14G22   30.48F
LEWISBURG      PTCLDY    26  15  62 CALM      30.54S
$$

WVZ047-010500-
Northern Mountains of West Virginia

CITY           SKY/WX    TMP DP  RH WIND       PRES   REMARKS
ELKINS         CLEAR     17  13  84 CALM      30.50F
$$

WVZ052-010500-
Eastern Panhandle of West Virginia

CITY           SKY/WX    TMP DP  RH WIND       PRES   REMARKS
MARTINSBURG    CLEAR     20   8  60 CALM      30.69F
PETERSBURG     CLEAR     22  14  71 CALM      30.63F
$$


USA.gov is the U.S. government's official web portal to all federal, state and local government web resources and services.